ONEWEB-0122 (47268 NORAD) Tracking and Keplerian Element Data

This shows tracking and keplerian element data for the satellite.

Feedback or suggestion? Click here.




ElementValue
Catalog47268
NameONEWEB-0122
Epoch Orbit175
Epoch Day99.91667824
Epoch Year2021
RAAN7.2677
Inclination87.9607
Eccentricity0.0001274
Argument of Perigee79.5123
Mean Anonmoly265.4003
Mean Motion13.28863439
Decay Rate-0.00038152
L11 47268U 20100L 21099.91667824 -.00038152 00000-0 -83536-1 0 9991
L22 47268 87.9607 7.2677 0001274 79.5123 265.4003 13.28863439 1756

Live tracking and technical data element details for ONEWEB-0122 (NORAD 47268). ONEWEB-0122 can be tracked NOW for your location showing map with azimuth and elevation plus other details from your city location.

Track the satellite on the map from your city or location and see movement details for azimuth, elevation, latitude, longitude, range, height, and movement on the map or in text.







IsCatalogInMostPopularTable: catalog: 47268, numindb: 33
Update: records affected: 1



GetName: 47268 ONEWEB-0122

Hit Count: updated at: Sat, 10 Apr 2021 18:28:31 GMT